Location: Boiro
(42.6475°N, 8.8834°W)
Time: 01:19:20
(UTC+01:00)

Transit 2A Rocket - Pass Details

Date: 09 December 2021
Orbit: 584 x 917 km, 66.7° (Epoch: 23 January)

Event Time Altitude Azimuth Distance (km) Brightness Sun altitude
Rises 14:09:41 0° 336° (NNW) 3,564 8.0 23.8°
Reaches altitude 10° 14:14:15 10° 6° (N) 2,607 7.3 23.6°
Maximum altitude 14:16:26 12° 28° (NNE) 2,455 7.2 23.5°
Drops below altitude 10° 14:18:36 10° 49° (NE) 2,570 7.3 23.5°
Sets 14:23:00 0° 80° (E) 3,449 8.2 23.3°
